Tracking 20719 objects as of 24-May-2020
HD Live streaming from Space Station
objects crossing your sky now

HGS 4 (GALAXY 4)

Track HGS 4 (GALAXY 4) now!
HGS 4 (GALAXY 4) is classified as:


NORAD ID: 22694
Int'l Code: 1993-039A
Perigee: 35,761.0 km
Apogee: 35,829.5 km
Inclination: 14.6 °
Period: 1,436.2 minutes
Semi major axis: 42166 km
RCS: 28.88 m2 (large)
Launch date: June 25, 1993
Source: United States (US)
Launch site: FRENCH GUIANA (FRGUI)
aabbcc
Your satellite tracking list
Your tracking list is empty




NASA's NSSDC Master Catalog

Two Line Element Set (TLE):
1 22694U 93039A   20145.02350073 -.00000089 +00000-0 +00000-0 0  9997
2 22694 014.5730 012.7349 0008116 287.4010 023.9188 01.00266485096782
Source of the keplerian elements: AFSPC